OK1RPL-6 Weather Reports


Display with metric or nautical units.
time (UTC)temp
F
wind
direction
speed
MPH
gust
MPH
rain 1hr
in
rain 24hr
in
rain mn
in
humidity
%
barometer
mb
20260507120403 40 270 4.0 10.0 0.00 0.00 0.00
20260507114826 39 270 3.0 13.0 0.00 0.60 0.00 1011.0
20260507113249 40 90 3.0 10.0 0.00 0.60 0.00 1011.1
20260507111713 39 180 2.0 9.0 0.00 0.60 0.00 1010.0
20260507111711 39 180 2.0 9.0 0.00 0.60 0.00 1010.0
20260507111707 39 180 2.0 9.0 0.00 0.60 0.00 1010.0
20260507110124 40 270 3.0 10.0 0.00 0.60 0.00 1009.7
20260507104547 41 90 4.0 15.0 0.00 0.60 0.00 1009.5
20260507103011 40 222 3.0 8.0 0.00 0.60 0.00 1010.0
20260507101434 39 270 3.0 9.0 0.00 0.60 0.00 1010.2
20260507095847 39 222 3.0 9.0 0.00 0.60 0.00 1010.1
20260507094309 39 222 3.0 8.0 0.00 0.60 0.00 1009.8
20260507092733 39 222 3.0 12.0 0.00 0.60 0.00 1010.1
20260507091156 39 315 3.0 12.0 0.00 0.60 0.00 1010.1
20260507085609 38 315 3.0 9.0 0.00 0.60 0.00 1010.0
20260507084032 39 222 3.0 14.0 0.00 0.60 0.00 1010.1
20260507084030 39 222 3.0 14.0 0.00 0.60 0.00 1010.1
20260507082454 38 222 4.0 13.0 0.00 0.60 0.00 1010.5
20260507080917 38 270 4.0 13.0 0.00 0.60 0.00 1009.3
20260507073753 38 222 2.0 10.0 0.00 0.60 0.00 1009.0
20260507061932 36 270 2.0 9.0 0.00 0.60 0.00 1009.9
20260507054813 37 270 2.0 9.0 0.00 0.60 0.00 1008.7
20260507053236 36 222 2.0 7.0 0.00 0.60 0.00 1008.8
20260507050121 37 180 2.0 7.0 0.00 0.60 0.00 1008.8
20260507044534 36 270 2.0 8.0 0.00 0.60 0.00 1008.8
20260507041420 36 222 1.0 6.0 0.00 0.60 0.00 1008.9
20260507035838 36 222 2.0 7.0 0.00 0.60 0.00 1007.9
20260507025605 36 222 1.0 4.0 0.00 0.60 0.00 1007.9
20260507003501 36 222 1.0 4.0 0.01 0.55 0.00 1008.0
20260506193735 38 135 1.0 6.0 0.05 0.03 0.00 1005.3
20260506193731 38 135 1.0 6.0 0.05 0.03 0.00 1005.3
20260506190611 39 222 1.0 4.0 0.04 0.00 0.00 1005.1
20260506190606 39 222 1.0 4.0 0.04 0.00 0.00 1005.1
20260506181910 40 0 1.0 3.0 0.00 0.24 0.00 1002.7
20260506171631 42 0 1.0 2.0 0.00 0.24 0.00 1002.2
20260506171626 42 0 1.0 2.0 0.00 0.24 0.00 1002.2
20260506164517 43 135 1.0 3.0 0.00 0.24 0.00 1001.3
20260506162939 42 0 1.0 4.0 0.00 0.24 0.00 1002.0
20260506155814 42 90 1.0 3.0 0.00 0.24 0.00 1001.8
20260506152700 41 315 1.0 3.0 0.00 0.24 0.00 1003.5
20260506152659 41 315 1.0 3.0 0.00 0.24 0.00 1003.5
20260506152655 41 315 1.0 3.0 0.00 0.24 0.00 1003.5
20260506151112 42 315 1.0 4.0 0.00 0.24 0.00 1003.3
20260506151108 42 315 1.0 4.0 0.00 0.24 0.00 1003.3
20260506145535 42 0 1.0 4.0 0.00 0.24 0.00 1003.1
20260506142421 43 45 1.0 4.0 0.00 0.24 0.00 1003.0
20260506142416 43 45 1.0 4.0 0.00 0.24 0.00 1003.0
20260506130559 44 270 1.0 2.0 0.00 0.20 0.00 1002.6
20260506130554 44 270 1.0 2.0 0.00 0.20 0.00 1002.6
20260506123440 46 222 1.0 3.0 0.00 0.20 0.00 1001.9
20260506121903 46 270 2.0 6.0 0.00 0.20 0.00 1001.5